Location: Loup Canal
(41.4930°N, 97.5670°W)
Time: 02:13:18
(UTC-05:00)

Daily predictions for brighter satellites

Satellite Brightness Start Highest point End
(mag) Time Altitude Azimuth Time Altitude Azimuth Time Altitude Azimuth
Spot 4 4.3 00:06:34 46° WSW 00:07:05 48° W 00:11:43 10° NNW
Cosmos 1842 3.7 00:07:52 59° NW 00:07:52 59° NW 00:11:24 10° N
Cosmos 2279 Rocket 4.4 00:04:55 10° NNW 00:11:01 56° W 00:12:54 41° SW
Cosmos 676 Rocket 4.1 00:11:44 54° SW 00:12:54 73° WNW 00:18:15 10° NNE
Meteor 2-5 Rocket 4.2 00:22:19 45° E 00:22:33 45° E 00:28:04 10° NNE
Cosmos 1023 Rocket 4.4 00:25:07 73° E 00:25:07 73° E 00:30:20 10° NNE
Cosmos 1943 4.5 00:21:12 15° WSW 00:25:21 36° WNW 00:30:36 10° N
Cosmos 1140 Rocket 3.4 00:29:48 80° ESE 00:29:48 80° ESE 00:35:03 10° NNE
Cosmos 1932 4.3 00:30:02 65° SSW 00:31:00 82° ESE 00:37:16 10° NE
Terra 3.5 00:30:52 22° WSW 00:31:26 23° W 00:35:11 10° NW
Okean 3 Rocket 4.3 00:36:09 46° NE 00:36:09 46° NE 00:39:33 10° NNE
SL-27 R/B 4.4 00:37:26 28° N 00:37:26 28° N 00:39:13 10° N
Cosmos 1544 4.4 00:33:34 10° N 00:36:06 41° N 00:36:06 41° N
Cosmos 1943 Rocket 2.2 00:36:53 10° NNW 00:42:23 66° WSW 00:42:31 66° WSW
Cosmos 2221 3.6 00:38:44 10° N 00:42:07 37° NE 00:42:07 37° NE
Cosmos 2084 4.1 00:41:30 10° NNW 00:44:50 52° N 00:44:50 52° N
H-2A R/B 3.5 00:44:26 10° NNE 00:46:53 37° NNE 00:46:53 37° NNE
Cosmos 1733 4.5 00:45:23 10° N 00:48:00 39° NNE 00:48:00 39° NNE
Atlas Centaur 2 4.2 00:42:19 10° WSW 00:46:01 25° SW 00:46:01 25° SW
Cosmos 1607 3.8 00:50:19 66° SE 00:50:29 67° ESE 00:56:40 10° NE
Cosmos 2208 Rocket 3.9 00:46:35 10° NNW 00:51:34 76° W 00:51:34 76° W
Cosmos 1953 4.2 00:50:16 10° NW 00:52:49 23° WNW 00:52:49 23° WNW
CZ-4B R/B 3.2 00:57:41 35° N 00:57:41 35° N 00:59:55 10° N
Cosmos 1470 3.9 00:52:35 10° NNW 00:55:14 41° NNW 00:55:14 41° NNW
ALOS 2 3.0 00:58:33 61° N 00:58:33 61° N 01:02:12 10° N
NOSS 3-2 (A) 4.1 01:00:44 40° ESE 01:00:44 40° ESE 01:06:12 10° NE
ATLAS 3B R/B 3.9 00:53:11 10° WSW 01:00:28 44° NW 01:07:35 10° NNE
Cosmos 1656 Rocket 3.5 00:57:53 10° NNW 01:03:38 89° ENE 01:03:48 85° SSE
Lacrosse 4 Rocket 3.6 01:03:16 17° WNW 01:04:33 20° NW 01:07:36 10° N
Cosmos 1553 Rocket 4.3 00:59:16 10° N 01:05:27 53° ENE 01:06:27 49° ESE
Cosmos 614 Rocket 3.9 01:05:50 78° NW 01:05:50 78° NW 01:10:58 10° NNE
Cosmos 2369 Rocket 4.2 01:06:39 10° WNW 01:09:33 14° W 01:09:48 14° W
CZ-2C R/B 3.6 01:07:05 10° NNE 01:12:01 37° E 01:12:01 37° E
Cosmos 1408 Rocket 4.2 01:18:31 54° NNE 01:18:31 54° NNE 01:22:04 10° NNE
CZ-4C R/B 2.8 01:21:01 44° E 01:21:01 44° E 01:25:47 10° NE
Meteor 1-16 Rocket 4.1 01:15:35 10° NNW 01:21:11 81° W 01:21:17 81° WSW
Cosmos 405 Rocket 4.4 01:23:06 29° NE 01:23:06 29° NE 01:25:16 10° NNE
Cosmos 1655 Rocket 4.0 01:25:30 64° SW 01:26:19 72° W 01:32:37 10° N
COSMOS 2406 4.1 01:26:16 37° W 01:27:40 43° WNW 01:33:08 10° NNE
ISS -0.6 01:28:19 19° NNW 01:28:22 19° NNW 01:30:47 10° NNE
USA 238 DEB 4.2 01:26:50 33° WSW 01:29:58 58° NW 01:36:57 10° NNE
USA 238 4.2 01:26:58 34° WSW 01:30:04 59° NW 01:37:03 10° NNE
S3M 3.8 01:24:02 10° N 01:30:19 84° E 01:30:59 73° SSE
USA 215 4.3 01:27:57 10° ENE 01:32:34 28° ESE 01:32:34 28° ESE
Cosmos 2278 4.2 01:29:17 10° NNW 01:34:49 52° ENE 01:35:50 46° E
Cosmos 2266 Rocket 4.4 01:35:05 48° ESE 01:35:57 51° E 01:42:08 10° NNE
Cosmos 1743 Rocket 4.3 01:42:54 50° NE 01:42:54 50° NE 01:46:25 10° NNE
Cosmos 841 Rocket 4.4 01:44:30 10° N 01:49:28 41° ENE 01:50:32 36° E
Cosmos 1428 Rocket 4.4 01:50:09 65° WSW 01:50:49 71° W 01:57:00 10° N
Cosmos 1151 Rocket 4.4 01:48:32 10° NNE 01:52:08 31° ENE 01:52:08 31° ENE
Cosmos 1766 Rocket 4.5 01:56:48 43° NW 01:56:48 43° NW 02:00:30 10° N
NOSS 3-3 (A) 4.4 01:48:41 10° NW 01:56:10 86° NE 01:59:01 44° SE
NOSS 3-3 (C) 4.4 01:48:49 10° NW 01:56:18 86° ENE 01:59:11 44° SE
Cosmos 2082 Rocket 2.9 01:57:27 40° ESE 01:57:27 40° ESE 02:02:40 10° NE
Meteor 1-24 Rocket 4.3 01:59:44 46° W 02:00:32 49° WNW 02:06:19 10° N
Cosmos 1500 Rocket 4.1 02:01:39 53° NE 02:01:39 53° NE 02:05:07 10° NNE
Cosmos 1697 Rocket 4.2 01:58:21 10° N 02:03:24 32° ENE 02:06:48 18° ESE
NOSS 3-2 (C) 3.3 02:03:18 68° SW 02:04:11 89° WNW 02:10:53 10° NE
Lacrosse 5 4.2 02:02:05 10° NNW 02:06:08 23° NNE 02:10:10 10° ENE
Cosmos 2151 4.4 02:07:23 31° ENE 02:07:23 31° ENE 02:10:43 10° NNE
Cosmos 2228 Rocket 3.9 02:02:51 10° NNW 02:06:10 43° NW 02:06:10 43° NW
Cosmos 468 Rocket 4.3 02:03:04 10° NNW 02:07:42 55° WNW 02:07:42 55° WNW
Cosmos 1328 Rocket 4.2 02:06:32 10° NNW 02:09:56 50° NW 02:09:56 50° NW
Cosmos 1814 Rocket 4.2 02:06:04 10° NNW 02:10:51 60° W 02:10:51 60° W
CENTAUR R/B 3.7 02:11:06 25° ESE 02:11:39 26° ESE 02:16:54 10° NE
Cosmos 1833 Rocket 3.3 02:12:53 41° ESE 02:13:08 41° ESE 02:18:24 10° NE
Cosmos 1818 3.4 02:08:48 10° NNW 02:14:19 86° ENE 02:14:40 78° SE
Meteor 2-2 Rocket 4.2 02:11:29 10° N 02:17:12 82° E 02:17:55 69° SSE
Cosmos 1515 Rocket 4.0 02:15:09 10° NNW 02:18:48 56° NW 02:18:48 56° NW
Meteor 2-20 4.4 02:19:36 62° SW 02:20:27 71° W 02:26:38 10° N
Cosmos 1486 Rocket 4.2 02:20:47 59° W 02:21:00 60° WNW 02:26:10 10° NNE
Meteor 1-21 Rocket 4.2 02:24:57 68° SW 02:25:33 75° W 02:31:17 10° N
Cosmos 1674 3.7 02:28:13 44° NNE 02:28:13 44° NNE 02:30:56 10° NNE
Cosmos 1726 4.1 02:36:22 10° NNE 02:39:16 21° ENE 02:39:46 21° E
Nadezhda 2 Rocket 4.5 02:39:51 57° SSW 02:41:10 76° W 02:47:31 10° N
ASTEX 1 3.2 02:38:52 10° N 02:43:52 86° W 02:44:09 80° SSW
CZ-2C R/B 3.5 02:45:33 48° W 02:45:37 48° W 02:51:04 10° NNW
Cosmos 1867 3.7 02:47:04 57° WSW 02:47:57 68° NW 02:53:27 10° NNE
Cosmos 1656 3.6 02:42:37 10° NNW 02:48:22 90° ENE 02:49:40 55° SSE
NOSS 3-2 (A) 4.5 02:48:05 26° W 02:51:00 40° NW 02:57:20 10° NNE
Cosmos 1805 Rocket 3.7 02:51:15 62° ESE 02:51:22 63° E 02:55:45 10° NNE
CZ-2C R/B 3.8 02:47:32 10° N 02:52:21 31° WNW 02:53:33 28° W
Cosmos 1763 Rocket 3.9 02:49:29 10° NNW 02:54:21 47° W 02:54:21 47° W
Cosmos 2369 4.3 02:49:41 10° NW 02:54:37 40° W 02:54:37 40° W
IRS-P3 4.4 02:54:04 10° NNE 02:59:21 61° ESE 03:00:36 47° SSE
IRAS Rocket 4.2 02:54:47 10° NNE 03:00:19 77° ESE 03:01:32 55° S
Genesis I 3.5 02:56:28 10° NNW 02:59:50 61° NNW 02:59:50 61° NNW
Cosmos 2315 Rocket 4.2 02:55:16 10° NNW 03:01:24 54° W 03:02:38 47° SW
Cosmos 2344 3.8 02:58:15 36° SW 03:01:46 70° NW 03:10:42 10° NNE
Cosmos 1633 Rocket 3.6 03:01:19 45° ESE 03:01:55 48° E 03:06:11 10° NNE
USA 32 4.0 02:59:52 10° NNW 03:05:04 62° W 03:05:41 57° SW
Cosmos 1707 Rocket 3.4 03:00:42 10° N 03:05:05 79° E 03:05:24 73° SE
ISS -0.1 03:03:54 10° NNW 03:05:45 14° N 03:07:37 10° NE
Cosmos 540 Rocket 3.6 03:02:13 10° NNW 03:07:25 74° ENE 03:09:18 39° SE
Cosmos 1666 Rocket 3.5 03:07:33 66° SE 03:07:53 70° E 03:12:12 10° NNE
Resurs 1-4 Rocket 4.5 03:05:20 10° ENE 03:08:15 15° E 03:11:10 10° ESE
CZ-4C R/B 3.6 03:06:10 21° W 03:08:55 31° NW 03:14:19 10° NNE
Cosmos 1437 Rocket 3.7 03:05:48 10° NNW 03:08:38 36° WNW 03:08:38 36° WNW
USA 215 3.3 03:10:18 10° NE 03:16:51 79° NW 03:19:53 35° WSW
Cosmos 1745 Rocket 4.0 03:17:15 40° S 03:19:44 86° E 03:26:07 10° N
USA 161 3.7 03:25:49 20° ENE 03:25:49 20° ENE 03:27:21 10° NNE
Cosmos 1980 Rocket 2.1 03:19:59 10° NNW 03:25:40 86° ENE 03:29:08 24° SSE
TRAILBLAZER 4.5 03:22:38 10° NW 03:27:12 64° WSW 03:27:30 62° SW
Cosmos 1300 2.8 03:24:43 10° NNW 03:28:18 60° WNW 03:28:18 60° WNW
Nadezhda 1 Rocket 3.9 03:22:22 10° N 03:28:36 87° E 03:31:46 31° S
PSLV R/B 4.3 03:25:08 10° N 03:29:30 41° WNW 03:30:11 38° W
Aureole 1 Rocket 3.6 03:26:34 10° NNW 03:30:58 55° WSW 03:32:05 46° SSW
SL-08 R/B 3.2 03:31:15 46° S 03:32:41 79° WSW 03:37:36 10° NNW
ERS-2 2.4 03:30:26 10° N 03:34:04 52° WNW 03:34:07 52° WNW
Cosmos 1437 3.4 03:36:13 48° NW 03:36:13 48° NW 03:39:07 10° N
Cosmos 332 Rocket 3.6 03:31:34 10° NNW 03:36:23 86° WSW 03:38:23 36° SSE
Cosmos 968 Rocket 3.6 03:38:34 38° S 03:40:29 69° ESE 03:45:36 10° NNE
Okean O Rocket 4.4 03:40:10 10° ENE 03:41:19 11° E 03:42:27 10° ESE
Cosmos 2082 Rocket 3.4 03:39:17 23° W 03:41:34 31° NW 03:46:34 10° N
Spot 4 Rocket 4.4 03:36:37 10° NNE 03:41:43 60° E 03:44:15 29° S
CZ-2D R/B 3.6 03:40:27 10° NE 03:45:03 31° E 03:49:15 12° SSE
NPP 3.8 03:40:38 10° N 03:45:58 62° WNW 03:48:01 37° SW
Sich 1 3.4 03:45:35 44° WSW 03:46:23 50° W 03:50:42 10° N
SAR-Lupe-3 4.4 03:46:14 68° SW 03:46:31 73° WSW 03:50:05 10° NNW
Cosmos 1538 Rocket 4.0 03:41:45 10° NNW 03:47:00 83° ENE 03:51:15 16° SSE
Cosmos 1697 Rocket 3.2 03:42:11 10° NW 03:47:24 38° WSW 03:48:28 35° SW
Lacrosse 5 1.8 03:44:37 10° NW 03:49:42 89° NE 03:54:46 10° SE
Cosmos 2058 4.2 03:52:14 26° W 03:52:41 26° WNW 03:56:14 10° NNW
Cosmos 1869 4.1 03:51:46 10° N 03:55:37 49° E 03:58:36 16° SSE
Cosmos 1455 2.6 03:52:30 10° N 03:56:17 59° E 03:58:26 23° SSE
Cosmos 1833 Rocket 3.9 03:54:34 21° W 03:57:09 30° NW 04:02:05 10° N
Cosmos 1862 Rocket 3.7 03:53:12 10° N 03:57:43 77° E 04:00:33 22° SSE
SL-14 R/B 4.0 03:58:10 33° W 03:58:35 34° WNW 04:02:07 10° N
Cosmos 2360 4.1 03:55:16 10° NNW 04:00:58 71° WSW 04:06:14 12° SSE
CENTAUR R/B 2.8 03:58:17 27° WSW 04:01:41 59° NW 04:08:33 10° NNE
ADEOS 3.5 03:56:59 10° N 04:02:12 73° WNW 04:04:49 30° SSW
BREEZE-M DEB (TANK) 4.0 03:58:33 10° WNW 04:02:47 27° N 04:05:01 10° ENE
Cosmos 1777 Rocket 4.1 04:03:38 26° S 04:06:38 73° ESE 04:11:56 10° NNE
CBERS-1 4.5 04:02:30 10° N 04:07:22 46° WNW 04:09:39 28° SW
OAO 3 Rocket 4.0 04:07:21 29° S 04:08:10 31° SSE 04:12:19 10° ESE
Meteor 1-4 Rocket 2.5 04:07:41 10° NNW 04:11:26 73° W 04:13:11 30° S
ATLAS 5 CENTAUR R/B 3.4 04:08:37 14° SSE 04:11:53 28° ESE 04:16:13 10° NE
Cosmos 1703 3.8 04:10:57 34° WSW 04:12:01 42° WNW 04:15:49 10° N
IRS-1D 3.8 04:08:02 10° NNE 04:13:24 73° ESE 04:17:18 19° S
Cosmos 2242 Rocket 4.5 04:09:57 10° NNW 04:13:48 30° W 04:14:43 27° WSW
Cosmos 1726 3.6 04:11:41 10° NW 04:14:26 21° W 04:14:26 21° W
ARIANE 5 R/B 2.5 04:12:22 10° NNE 04:17:31 88° ESE 04:20:57 21° SSW
Cosmos 773 Rocket 3.9 04:12:30 10° NNW 04:17:40 87° ENE 04:22:48 10° SSE
Cosmos 2181 Rocket 3.9 04:12:51 10° N 04:19:01 85° W 04:25:14 10° S
Meteor 2-10 4.2 04:14:35 10° NNW 04:19:39 55° W 04:23:15 20° SSW
Lacrosse 5 rocket 2.5 04:16:26 10° NW 04:20:43 50° NE 04:25:10 10° ESE
SL-16 R/B 2.2 04:17:28 10° NNW 04:23:11 87° WSW 04:28:51 10° SSE
EO 1 Del DPAF 3.2 04:20:51 20° S 04:23:27 69° WSW 04:27:22 10° NNW
Cosmos 371 Rocket 3.8 04:24:50 10° NW 04:29:21 39° WSW 04:32:19 19° SSW
Cosmos 1271 Rocket 3.2 04:28:47 10° NNW 04:32:20 38° W 04:33:58 25° SW
Cosmos 1346 3.4 04:30:57 21° S 04:32:49 65° E 04:35:53 10° NNE
Cosmos 1626 2.5 04:31:41 26° SW 04:33:25 47° W 04:37:04 10° N
MTI 3.8 04:32:48 12° SSE 04:35:52 85° WSW 04:39:15 10° NNW
Abrixas 4.5 04:34:42 10° WNW 04:37:23 26° NNW 04:40:04 10° NE
Cosmos 2322 Rocket 2.2 04:32:09 10° NNW 04:37:41 61° WSW 04:43:12 10° S
SL-16 R/B 2.6 04:35:56 10° S 04:42:08 65° WSW 04:48:23 10° NNW
ISS -1.1 04:40:05 10° NW 04:43:00 29° NNE 04:45:54 10° E
H-2A R/B 4.3 04:16:59 10° W 04:44:17 34° SW 04:49:38 10° SSE
Resurs 1-4 Rocket 2.2 04:43:18 10° N 04:48:35 70° WNW 04:53:26 12° SSW
Cosmos 304 Rocket 3.8 04:45:49 10° NNW 04:50:41 89° WSW 04:55:30 10° SSE
Cosmos 1703 Rocket 3.5 04:47:49 10° NNW 04:52:12 70° W 04:56:29 10° S
SME Rocket 4.0 04:45:16 10° SSE 04:52:41 88° E 04:57:36 10° NNW
Cosmos 2112 Rocket 3.9 04:49:27 10° NNW 04:54:41 82° WSW 04:59:52 10° SSE
Cosmos 2074 Rocket 4.0 04:50:06 10° S 04:56:19 85° W 05:02:36 10° N
Cosmos 2184 Rocket 4.1 04:51:32 10° S 04:57:55 86° W 05:04:19 10° N
CZ-2D R/B 3.4 05:01:48 10° N 05:06:01 75° WNW 05:10:05 10° SSW
Cosmos 1980 Rocket 3.9 05:06:35 10° WNW 05:08:49 12° W 05:10:49 10° WSW
Cosmos 2360 Rocket 2.2 05:04:47 10° NNW 05:10:27 89° ENE 05:16:05 10° SSE
CZ-4B R/B 3.4 05:07:09 10° NNE 05:12:36 78° ESE 05:18:08 10° S
In-Cosmos 22 Rocket 4.3 05:09:42 10° S 05:14:59 78° E 05:20:22 10° NNE
Okean O Rocket 1.7 05:13:44 10° N 05:18:10 69° WNW 05:22:32 10° SSW
Cosmos 2219 3.7 05:12:47 10° S 05:18:25 64° ESE 05:24:07 10° NNE
Cosmos 2322 3.7 05:12:41 10° NNW 05:18:26 81° WSW 05:24:09 10° SSE
SL-24 DEB 4.2 05:14:15 10° N 05:18:55 71° W 05:23:30 10° SSW
Cosmos 2298 Rocket 4.1 05:14:25 10° SSW 05:19:45 85° ESE 05:25:07 10° NNE
ATLAS CENTAUR R/B 3.5 05:16:19 10° NNW 05:20:44 37° NE 05:24:49 10° ESE
CZ-2C R/B 3.9 05:19:13 10° S 05:23:32 49° W 05:27:56 10° NNW
CZ-2D R/B 3.0 05:20:28 10° N 05:25:07 33° WNW 05:29:47 10° SW
GP-B 4.2 05:24:22 10° NNE 05:28:41 49° E 05:32:59 10° SSE
IRS-1C Rocket 4.4 05:23:44 10° N 05:28:52 53° WNW 05:33:58 10° SW
CZ-4B DEB 4.3 05:24:11 10° NNE 05:29:42 85° WNW 05:35:13 10° SSW
PAYLOAD B 4.3 05:24:56 10° N 05:30:25 73° WNW 05:35:55 10° SSW
